SCP
0 -0 -0 -0 -0 -0 -0 -0 -0 -0 -0 -0 -0 -0 -0 -0 0 0 0 0 0 0 0 0 0 0 0 0 0 -0 -0 -0 -0 -0 -0 -0 -0 -0 -0 -0 -0 -0 -0
0 -0 0 -0 -0 -0 -0 -0 -0 -0 0 0 0 0 -0 -0 -0 0 0 0 0 0 0 0 0 0 0 0 0 0 0 -0 0 -0 -0 -0 -0 -0 -0 -0 -0 -0 -0
0 -0 -0 0 -0 -0 -0 -0 -0 -0 0 0 0 0 0 0 0 0 0 0 0 0 0 0 0 0 0 0 0 0 0 0 -0 -0 -0 -0 -0 -0 -0 -0 -0 -0 -0
0 0 0 0 -0 -0 0 0 0 0 0 0 0 0 0 0 0 0 0 0 0 0 0 0 0 0 0 0 0 0 0 0 0 0 -0 -0 -0 -0 -0 -0 -0 -0 -0
0 0 0 0 0 0 0 0 0 0 0 0 0 0 0 0 0 0 0 0 0 0 0 0 0 0 0 0 0 0 0 0 0 0 -0 -0 -0 -0 -0 -0 -0 -0 -0
0 0 0 0 0 0 0 0 0 0 0 0 0 0 0 0 0 0 0 0 0 0 0 0 0 0 0 0 0 0 0 0 0 0 0 0 0 -0 -0 -0 -0 -0 0
0 0 0 0 0 0 0 0 0 0 0 0 0 0 0 0 0 0 0 0 0 0 0 0 0 0 0 0 0 0 0 0 0 0 0 0 0 -0 -0 -0 -0 -0 -0
0 0 0 0 0 0 0 0 0 0 0 0 0 0 0 0 0 0 0 0 0 0 0 0 0 0 0 0 0 0 0 0 0 0 0 0 0 -0 -0 -0 -0 -0 -0
0 0 0 0 0 0 0 0 0 0 0 0 0 0 0 0 0 0 0 0 0 0 0 0 0 0 0 0 0 0 0 0 0 0 0 0 0 0 -0 -0 -0 -0 -0
0 0 0 0 0 0 0 0 0 0 0 0 0 0 0 0 0 0 0 0 0 0 0 0 0 0 0 0 0 0 0 0 0 0 0 0 0 0 0 -0 0 -0 -0
0 0 0 1 0 0 0 0 0 0 0 0 0 0 0 0 0 0 0 0 0 0 0 0 0 0 0 0 0 0 0 0 0 0 0 0 0 0 0 0 0 0 0
0 0 0 0 1 0 0 0 0 0 0 0 0 0 0 0 0 0 0 0 0 0 0 0 0 0 0 0 0 0 0 0 0 0 0 0 0 0 0 0 0 0 0
0 0 0 0 0 0 1 1 1 1 1 1 0 0 0 0 0 0 0 0 0 0 0 0 0 0 0 0 0 0 0 0 0 0 0 0 0 0 0 0 0 0 0
0 0 0 0 0 0 0 0 1 1 1 1 1 1 1 0 0 0 0 0 0 0 0 0 0 0 0 0 0 0 0 0 0 0 0 0 0 0 0 0 0 0 0
0 0 0 0 0 0 0 0 0 0 1 1 1 1 1 0 0 0 0 0 0 0 0 0 0 0 0 0 0 0 0 0 0 0 0 0 0 0 0 0 0 0 0
0 0 0 0 0 0 0 0 0 0 0 0 1 1 1 0 0 0 0 0 0 0 0 0 0 0 0 0 0 0 0 0 0 0 0 0 0 0 0 0 0 0 0
0 0 0 0 0 0 0 0 0 0 0 0 0 0 0 0 0 0 0 0 0 0 0 0 0 0 0 0 0 0 0 0 0 0 0 0 0 0 0 0 0 0 0
0 0 0 0 0 0 0 0 0 0 0 0 0 0 0 0 0 0 0 0 0 0 0 0 0 0 0 0 0 0 0 0 0 0 0 0 0 0 0 0 0 0 0
0 0 0 0 0 0 0 0 0 0 0 0 0 0 0 0 0 1 0 0 0 0 0 0 0 0 0 0 0 0 0 0 0 0 0 0 0 0 0 0 0 0 0
0 0 0 0 0 0 0 0 0 0 0 0 0 0 0 0 0 0 1 1 0 0 0 0 0 0 0 0 0 0 0 0 0 0 0 0 0 0 0 0 0 0 0
0 0 0 0 0 0 0 0 0 0 0 0 0 0 0 0 0 0 0 1 1 0 0 0 0 0 0 0 0 0 0 0 0 0 0 0 0 0 0 0 0 0 0
0 0 0 0 0 0 0 0 0 0 0 0 0 0 0 0 0 0 0 1 1 0 0 0 0 0 0 0 0 0 0 0 0 0 0 0 0 0 0 0 0 0 0
0 0 0 0 0 0 0 0 0 0 0 0 0 0 0 0 0 0 0 0 0 1 0 0 0 0 0 0 0 0 0 0 0 0 0 0 0 0 0 0 0 0 0
0 0 0 0 0 0 0 0 0 0 0 0 0 0 0 0 0 0 0 0 0 0 0 0 0 0 0 0 0 0 0 0 0 0 0 0 0 0 0 0 0 0 0
0 0 0 0 0 0 0 0 0 0 0 0 0 0 0 0 0 0 0 0 0 0 1 0 0 0 0 0 0 0 0 0 0 0 0 0 0 0 0 0 0 0 0
0 0 0 0 0 0 0 0 0 0 0 0 0 0 0 0 0 0 0 0 0 0 0 0 0 0 0 0 0 0 0 0 0 0 0 0 0 0 0 0 0 0 0
Wind_Speed_500mb
14 27 40 36 34 34 33 29 25 23 22 20 20 22 23 20 24 23 17 15 14 12 15 15 13 16 17 22 28 29 34 43 56 53 44 41 40 44 51 52 48 44 40
12 27 44 41 37 33 32 30 28 25 24 23 22 23 22 22 23 22 18 14 16 15 16 22 22 24 29 31 30 35 39 51 50 45 41 38 44 47 47 44 41 34 27
5 25 42 42 40 34 28 24 24 24 24 24 25 28 28 25 24 26 25 26 21 19 25 28 29 29 27 34 39 37 44 46 47 43 42 47 49 46 41 35 30 25 20
5 21 33 43 40 36 31 27 24 22 22 22 24 25 37 33 31 30 35 25 22 29 30 30 31 31 33 45 42 42 43 44 41 41 44 47 46 41 36 29 20 15 13
6 18 29 36 36 35 33 30 28 25 22 17 22 25 28 28 33 32 26 28 27 34 33 34 33 31 34 45 42 44 46 45 44 44 47 44 44 39 32 20 13 11 13
9 13 23 32 34 35 35 34 30 27 24 18 18 24 23 31 28 29 28 30 29 32 37 37 38 35 36 44 45 43 42 42 44 54 52 47 42 37 24 16 10 8 10
10 14 19 28 33 35 36 34 30 27 25 22 20 21 25 31 31 30 31 35 34 35 36 37 41 42 42 44 42 46 41 44 54 60 52 46 37 30 23 16 6 5 8
14 18 20 24 29 32 33 32 31 29 29 26 24 23 22 27 30 31 34 39 38 37 41 39 41 43 47 49 42 45 43 49 51 53 46 37 33 30 23 14 6 3 6
18 22 24 24 26 28 31 34 34 35 35 32 31 28 26 23 29 34 37 38 42 41 41 45 48 45 52 52 49 50 49 48 48 43 39 34 31 29 21 15 7 3 6
15 20 25 27 26 29 33 37 39 39 40 40 38 35 32 28 30 40 41 41 45 44 44 45 51 54 57 55 55 54 54 50 39 42 41 37 35 29 18 16 12 4 8
16 18 24 27 31 33 37 40 42 44 46 46 43 43 40 38 37 41 49 46 46 47 47 48 48 60 63 61 56 57 60 56 52 46 44 42 39 28 23 21 15 8 9
24 27 28 31 32 36 39 42 46 48 51 54 53 52 51 47 42 44 50 54 53 50 50 48 48 60 65 67 57 65 63 58 56 52 43 48 40 35 30 25 17 15 15
32 32 33 35 39 43 46 46 51 52 56 59 60 59 59 57 53 51 51 57 58 57 58 54 54 59 72 70 69 69 69 62 59 53 44 49 46 36 29 22 17 19 15
38 42 42 41 43 44 46 51 53 59 63 64 67 69 68 70 70 67 62 56 64 68 67 63 59 67 69 72 73 73 74 65 61 60 52 49 48 39 33 26 21 21 22
47 48 51 51 52 53 54 54 56 59 62 71 71 72 76 81 84 80 77 74 69 69 69 67 61 73 77 76 77 74 78 71 68 65 60 57 52 43 34 30 23 17 33
45 40 46 54 54 57 61 65 66 65 64 61 66 63 76 80 86 92 93 88 81 75 69 72 67 84 82 81 75 76 76 74 75 69 67 67 59 47 40 31 24 22 34
20 22 23 30 37 45 51 59 66 69 66 61 59 62 66 70 81 85 94 107 86 83 88 72 73 85 83 84 79 76 76 80 83 76 75 72 63 55 41 36 29 27 35
23 26 28 36 40 42 43 45 49 51 54 60 63 61 52 52 60 65 91 94 96 89 92 84 91 93 88 93 93 83 78 85 88 87 81 75 75 59 48 38 28 34 40
20 21 23 28 31 41 43 43 46 48 51 52 53 54 54 53 53 63 62 73 83 96 103 110 105 94 101 98 93 89 82 86 93 88 83 79 79 65 50 42 35 44 48
21 27 31 33 35 39 46 48 49 50 49 50 52 51 48 49 48 50 62 67 67 77 94 102 104 115 100 107 102 95 91 90 96 93 87 91 79 65 53 45 41 50 55
26 34 40 43 44 46 50 51 49 50 50 50 51 50 49 48 53 61 62 59 65 72 74 83 95 102 84 105 109 100 94 93 92 91 93 102 76 66 59 54 50 54 59
26 38 49 56 58 55 52 49 47 50 56 60 60 63 62 59 56 56 55 57 63 67 71 84 99 85 112 93 94 106 69 81 94 88 90 90 79 76 70 65 59 53 63
32 63 59 55 55 55 56 59 62 67 75 77 79 82 79 74 70 69 68 67 63 65 71 70 91 112 95 110 108 75 51 43 75 98 106 98 87 82 72 74 68 60 64
50 60 49 53 61 70 73 83 89 94 88 87 79 91 99 98 98 87 83 80 78 73 72 74 67 79 131 132 119 111 87 70 73 41 102 106 101 90 86 86 80 71 63
68 56 55 62 67 73 80 86 92 97 100 98 89 94 98 108 109 103 96 92 88 84 83 80 77 73 95 92 134 128 114 78 80 86 71 99 99 100 100 93 86 78 72
76 67 70 67 68 70 74 78 86 89 85 83 78 82 85 88 97 101 98 98 102 95 90 90 90 82 69 83 102 111 127 115 83 93 78 113 111 109 101 95 92 87 83
Wind_Direction_500mb
205 187 183 192 195 195 196 200 206 208 208 212 219 220 222 219 212 222 225 226 218 203 174 167 157 131 143 154 144 142 140 134 128 120 121 122 127 131 134 132 133 127 123
214 190 185 191 199 202 205 206 212 219 226 230 229 223 215 208 205 217 231 225 224 196 184 182 165 164 169 157 152 145 137 136 130 131 136 138 138 138 141 136 130 120 117
190 185 187 193 201 206 215 217 209 219 231 241 235 224 207 207 207 209 207 209 221 194 179 181 171 171 173 156 143 139 138 137 139 142 143 141 141 144 142 137 126 112 98
169 183 188 194 202 209 212 219 233 237 246 252 238 217 206 206 208 213 223 197 190 175 186 184 176 168 163 146 144 150 148 150 149 147 146 144 145 151 153 143 119 96 81
195 184 191 194 202 211 216 224 234 245 250 245 226 199 191 195 198 210 199 188 184 185 190 191 184 186 164 152 160 161 161 161 157 155 151 149 153 157 157 138 123 85 62
195 196 200 198 199 211 220 231 241 246 241 243 229 230 216 206 198 204 199 184 192 189 189 196 188 166 168 163 167 170 170 173 171 164 154 155 156 150 151 146 135 86 41
197 201 206 210 209 214 221 233 240 242 240 250 249 242 231 207 200 198 205 185 198 195 192 196 188 174 178 170 170 174 171 169 174 167 174 166 160 159 170 161 141 55 22
207 204 207 213 221 227 233 236 240 240 241 245 251 256 249 228 219 207 210 195 199 202 199 196 183 184 182 174 174 178 174 172 171 175 173 173 167 168 168 161 154 23 356
216 210 210 216 218 223 234 241 247 250 245 244 246 250 256 252 212 218 217 209 201 209 209 199 184 187 179 178 177 177 180 180 185 178 180 174 169 171 182 174 192 264 322
230 224 225 226 228 228 233 238 243 246 249 252 254 253 252 251 230 221 223 220 209 209 210 208 192 187 184 185 187 182 184 186 183 196 200 192 175 174 209 218 209 253 305
253 240 233 238 237 234 237 242 244 246 249 253 251 251 248 244 233 225 221 221 213 217 216 218 200 193 190 193 197 191 188 197 205 206 200 181 187 186 212 213 214 252 284
250 248 248 247 249 248 246 247 249 248 247 245 248 248 244 239 225 224 225 220 213 214 223 223 214 198 195 201 201 194 195 199 207 209 203 188 191 188 209 223 231 264 267
255 252 252 250 246 248 248 247 249 252 252 249 246 248 246 243 239 232 229 226 217 216 215 221 223 211 201 205 206 199 199 201 204 209 211 194 193 195 221 223 242 259 221
267 265 258 255 252 250 249 250 253 251 251 253 253 249 249 242 241 239 236 226 226 216 215 215 216 213 208 211 212 201 202 204 205 205 208 208 206 202 220 212 238 265 198
278 267 258 257 257 258 257 256 256 257 255 254 250 254 251 250 246 241 238 238 232 221 216 217 216 214 211 214 214 206 205 207 211 205 209 208 210 208 224 222 241 233 165
281 275 260 256 257 256 257 259 260 259 259 260 255 254 257 259 258 249 240 236 234 228 221 217 217 215 213 213 209 209 213 211 213 209 210 208 200 207 208 205 230 241 173
278 282 281 270 265 265 264 262 262 264 265 262 260 260 252 250 253 255 247 238 239 240 228 224 216 220 219 216 210 210 212 215 213 214 215 208 198 200 217 208 224 242 186
283 288 284 278 272 271 273 271 268 267 268 270 268 264 257 255 256 253 245 250 241 241 238 225 221 221 219 217 205 205 213 214 214 215 214 214 199 202 205 207 218 204 184
278 287 294 287 275 264 267 268 266 266 265 264 264 263 258 256 255 254 256 250 240 244 234 229 217 224 218 216 213 207 213 217 216 214 210 216 206 208 203 215 230 218 185
288 298 302 299 288 269 257 258 263 265 265 265 265 264 260 254 250 252 256 259 254 242 227 221 218 218 225 220 215 210 212 219 220 217 221 208 204 206 209 213 225 216 199
295 295 292 287 283 273 262 261 261 263 262 261 262 264 266 265 265 262 258 255 258 252 253 237 230 221 217 218 212 209 211 212 221 211 216 216 200 204 208 211 222 222 206
315 311 297 286 278 268 261 261 260 263 263 260 258 257 257 258 259 262 265 262 255 256 254 239 227 218 210 217 208 203 195 198 209 203 207 200 202 208 208 215 221 226 218
319 323 304 286 271 265 264 264 265 274 274 268 259 259 259 261 260 259 259 259 258 257 253 246 231 224 208 216 209 211 187 200 196 197 203 209 208 211 213 217 221 225 221
322 320 301 287 278 272 270 273 274 277 277 273 268 270 265 262 266 262 255 254 252 252 252 255 247 227 212 217 218 212 214 207 186 193 202 204 209 213 217 217 218 223 222
321 313 301 296 286 279 276 276 278 278 279 278 272 268 267 265 263 263 254 249 248 247 246 248 247 244 252 217 211 217 219 210 210 199 200 204 208 213 215 217 221 222 224
313 311 309 302 298 293 287 282 279 277 276 273 268 266 266 265 264 258 255 250 247 246 243 242 246 247 247 237 227 214 213 211 208 199 204 202 206 211 216 216 220 221 224
Wind_Speed_850mb
14 27 40 36 34 34 33 29 25 23 22 20 20 22 23 20 24 23 17 15 14 12 15 15 13 16 17 22 28 29 34 43 56 53 44 41 40 44 51 52 48 44 40
12 27 44 41 37 33 32 30 28 25 24 23 22 23 22 22 23 22 18 14 16 15 16 22 22 24 29 31 30 35 39 51 50 45 41 38 44 47 47 44 41 34 27
5 25 42 42 40 34 28 24 24 24 24 24 25 28 28 25 24 26 25 26 21 19 25 28 29 29 27 34 39 37 44 46 47 43 42 47 49 46 41 35 30 25 20
5 21 33 43 40 36 31 27 24 22 22 22 24 25 37 33 31 30 35 25 22 29 30 30 31 31 33 45 42 42 43 44 41 41 44 47 46 41 36 29 20 15 13
6 18 29 36 36 35 33 30 28 25 22 17 22 25 28 28 33 32 26 28 27 34 33 34 33 31 34 45 42 44 46 45 44 44 47 44 44 39 32 20 13 11 13
9 13 23 32 34 35 35 34 30 27 24 18 18 24 23 31 28 29 28 30 29 32 37 37 38 35 36 44 45 43 42 42 44 54 52 47 42 37 24 16 10 8 10
10 14 19 28 33 35 36 34 30 27 25 22 20 21 25 31 31 30 31 35 34 35 36 37 41 42 42 44 42 46 41 44 54 60 52 46 37 30 23 16 6 5 8
14 18 20 24 29 32 33 32 31 29 29 26 24 23 22 27 30 31 34 39 38 37 41 39 41 43 47 49 42 45 43 49 51 53 46 37 33 30 23 14 6 3 6
18 22 24 24 26 28 31 34 34 35 35 32 31 28 26 23 29 34 37 38 42 41 41 45 48 45 52 52 49 50 49 48 48 43 39 34 31 29 21 15 7 3 6
15 20 25 27 26 29 33 37 39 39 40 40 38 35 32 28 30 40 41 41 45 44 44 45 51 54 57 55 55 54 54 50 39 42 41 37 35 29 18 16 12 4 8
16 18 24 27 31 33 37 40 42 44 46 46 43 43 40 38 37 41 49 46 46 47 47 48 48 60 63 61 56 57 60 56 52 46 44 42 39 28 23 21 15 8 9
24 27 28 31 32 36 39 42 46 48 51 54 53 52 51 47 42 44 50 54 53 50 50 48 48 60 65 67 57 65 63 58 56 52 43 48 40 35 30 25 17 15 15
32 32 33 35 39 43 46 46 51 52 56 59 60 59 59 57 53 51 51 57 58 57 58 54 54 59 72 70 69 69 69 62 59 53 44 49 46 36 29 22 17 19 15
38 42 42 41 43 44 46 51 53 59 63 64 67 69 68 70 70 67 62 56 64 68 67 63 59 67 69 72 73 73 74 65 61 60 52 49 48 39 33 26 21 21 22
47 48 51 51 52 53 54 54 56 59 62 71 71 72 76 81 84 80 77 74 69 69 69 67 61 73 77 76 77 74 78 71 68 65 60 57 52 43 34 30 23 17 33
45 40 46 54 54 57 61 65 66 65 64 61 66 63 76 80 86 92 93 88 81 75 69 72 67 84 82 81 75 76 76 74 75 69 67 67 59 47 40 31 24 22 34
20 22 23 30 37 45 51 59 66 69 66 61 59 62 66 70 81 85 94 107 86 83 88 72 73 85 83 84 79 76 76 80 83 76 75 72 63 55 41 36 29 27 35
23 26 28 36 40 42 43 45 49 51 54 60 63 61 52 52 60 65 91 94 96 89 92 84 91 93 88 93 93 83 78 85 88 87 81 75 75 59 48 38 28 34 40
20 21 23 28 31 41 43 43 46 48 51 52 53 54 54 53 53 63 62 73 83 96 103 110 105 94 101 98 93 89 82 86 93 88 83 79 79 65 50 42 35 44 48
21 27 31 33 35 39 46 48 49 50 49 50 52 51 48 49 48 50 62 67 67 77 94 102 104 115 100 107 102 95 91 90 96 93 87 91 79 65 53 45 41 50 55
26 34 40 43 44 46 50 51 49 50 50 50 51 50 49 48 53 61 62 59 65 72 74 83 95 102 84 105 109 100 94 93 92 91 93 102 76 66 59 54 50 54 59
26 38 49 56 58 55 52 49 47 50 56 60 60 63 62 59 56 56 55 57 63 67 71 84 99 85 112 93 94 106 69 81 94 88 90 90 79 76 70 65 59 53 63
32 63 59 55 55 55 56 59 62 67 75 77 79 82 79 74 70 69 68 67 63 65 71 70 91 112 95 110 108 75 51 43 75 98 106 98 87 82 72 74 68 60 64
50 60 49 53 61 70 73 83 89 94 88 87 79 91 99 98 98 87 83 80 78 73 72 74 67 79 131 132 119 111 87 70 73 41 102 106 101 90 86 86 80 71 63
68 56 55 62 67 73 80 86 92 97 100 98 89 94 98 108 109 103 96 92 88 84 83 80 77 73 95 92 134 128 114 78 80 86 71 99 99 100 100 93 86 78 72
76 67 70 67 68 70 74 78 86 89 85 83 78 82 85 88 97 101 98 98 102 95 90 90 90 82 69 83 102 111 127 115 83 93 78 113 111 109 101 95 92 87 83
Wind_Direction_850mb
205 187 183 192 195 195 196 200 206 208 208 212 219 220 222 219 212 222 225 226 218 203 174 167 157 131 143 154 144 142 140 134 128 120 121 122 127 131 134 132 133 127 123
214 190 185 191 199 202 205 206 212 219 226 230 229 223 215 208 205 217 231 225 224 196 184 182 165 164 169 157 152 145 137 136 130 131 136 138 138 138 141 136 130 120 117
190 185 187 193 201 206 215 217 209 219 231 241 235 224 207 207 207 209 207 209 221 194 179 181 171 171 173 156 143 139 138 137 139 142 143 141 141 144 142 137 126 112 98
169 183 188 194 202 209 212 219 233 237 246 252 238 217 206 206 208 213 223 197 190 175 186 184 176 168 163 146 144 150 148 150 149 147 146 144 145 151 153 143 119 96 81
195 184 191 194 202 211 216 224 234 245 250 245 226 199 191 195 198 210 199 188 184 185 190 191 184 186 164 152 160 161 161 161 157 155 151 149 153 157 157 138 123 85 62
195 196 200 198 199 211 220 231 241 246 241 243 229 230 216 206 198 204 199 184 192 189 189 196 188 166 168 163 167 170 170 173 171 164 154 155 156 150 151 146 135 86 41
197 201 206 210 209 214 221 233 240 242 240 250 249 242 231 207 200 198 205 185 198 195 192 196 188 174 178 170 170 174 171 169 174 167 174 166 160 159 170 161 141 55 22
207 204 207 213 221 227 233 236 240 240 241 245 251 256 249 228 219 207 210 195 199 202 199 196 183 184 182 174 174 178 174 172 171 175 173 173 167 168 168 161 154 23 356
216 210 210 216 218 223 234 241 247 250 245 244 246 250 256 252 212 218 217 209 201 209 209 199 184 187 179 178 177 177 180 180 185 178 180 174 169 171 182 174 192 264 322
230 224 225 226 228 228 233 238 243 246 249 252 254 253 252 251 230 221 223 220 209 209 210 208 192 187 184 185 187 182 184 186 183 196 200 192 175 174 209 218 209 253 305
253 240 233 238 237 234 237 242 244 246 249 253 251 251 248 244 233 225 221 221 213 217 216 218 200 193 190 193 197 191 188 197 205 206 200 181 187 186 212 213 214 252 284
250 248 248 247 249 248 246 247 249 248 247 245 248 248 244 239 225 224 225 220 213 214 223 223 214 198 195 201 201 194 195 199 207 209 203 188 191 188 209 223 231 264 267
255 252 252 250 246 248 248 247 249 252 252 249 246 248 246 243 239 232 229 226 217 216 215 221 223 211 201 205 206 199 199 201 204 209 211 194 193 195 221 223 242 259 221
267 265 258 255 252 250 249 250 253 251 251 253 253 249 249 242 241 239 236 226 226 216 215 215 216 213 208 211 212 201 202 204 205 205 208 208 206 202 220 212 238 265 198
278 267 258 257 257 258 257 256 256 257 255 254 250 254 251 250 246 241 238 238 232 221 216 217 216 214 211 214 214 206 205 207 211 205 209 208 210 208 224 222 241 233 165
281 275 260 256 257 256 257 259 260 259 259 260 255 254 257 259 258 249 240 236 234 228 221 217 217 215 213 213 209 209 213 211 213 209 210 208 200 207 208 205 230 241 173
278 282 281 270 265 265 264 262 262 264 265 262 260 260 252 250 253 255 247 238 239 240 228 224 216 220 219 216 210 210 212 215 213 214 215 208 198 200 217 208 224 242 186
283 288 284 278 272 271 273 271 268 267 268 270 268 264 257 255 256 253 245 250 241 241 238 225 221 221 219 217 205 205 213 214 214 215 214 214 199 202 205 207 218 204 184
278 287 294 287 275 264 267 268 266 266 265 264 264 263 258 256 255 254 256 250 240 244 234 229 217 224 218 216 213 207 213 217 216 214 210 216 206 208 203 215 230 218 185
288 298 302 299 288 269 257 258 263 265 265 265 265 264 260 254 250 252 256 259 254 242 227 221 218 218 225 220 215 210 212 219 220 217 221 208 204 206 209 213 225 216 199
295 295 292 287 283 273 262 261 261 263 262 261 262 264 266 265 265 262 258 255 258 252 253 237 230 221 217 218 212 209 211 212 221 211 216 216 200 204 208 211 222 222 206
315 311 297 286 278 268 261 261 260 263 263 260 258 257 257 258 259 262 265 262 255 256 254 239 227 218 210 217 208 203 195 198 209 203 207 200 202 208 208 215 221 226 218
319 323 304 286 271 265 264 264 265 274 274 268 259 259 259 261 260 259 259 259 258 257 253 246 231 224 208 216 209 211 187 200 196 197 203 209 208 211 213 217 221 225 221
322 320 301 287 278 272 270 273 274 277 277 273 268 270 265 262 266 262 255 254 252 252 252 255 247 227 212 217 218 212 214 207 186 193 202 204 209 213 217 217 218 223 222
321 313 301 296 286 279 276 276 278 278 279 278 272 268 267 265 263 263 254 249 248 247 246 248 247 244 252 217 211 217 219 210 210 199 200 204 208 213 215 217 221 222 224
313 311 309 302 298 293 287 282 279 277 276 273 268 266 266 265 264 258 255 250 247 246 243 242 246 247 247 237 227 214 213 211 208 199 204 202 206 211 216 216 220 221 224